Malaga, WA

9:11 AM PDT on July 23, 2016 (GMT -0700)
Pangborn Memorial

Weather History for KEAT - August, 2012

Change the Weather History Date:

Saturday, August 4, 2012

  Actual Average Record
Temperature  
Mean Temperature 79 °F 69 °F  
Max Temperature 94 °F 85 °F 109 °F (1961)
Min Temperature 63 °F 53 °F 49 °F (2013)
Degree Days  
Heating Degree Days 0 1  
Month to date heating degree days 0 4  
Since 1 June heating degree days 98 243  
Since 1 July heating degree days 2 56  
Cooling Degree Days 14 5  
Month to date cooling degree days 49 20  
Year to date cooling degree days 486 149  
Since 1 June cooling degree days 460 144  
Growing Degree Days 28 (Base 50)    
Moisture  
Dew Point 45 °F    
Average Humidity 33    
Maximum Humidity 48    
Minimum Humidity 17    
Precipitation  
Precipitation 0.00 in 0.01 in 0.11 in (2004)
Month to date precipitation 0.00 0.04  
Year to date precipitation 5.42 9.99  
Sea Level Pressure  
Sea Level Pressure 29.95 in    
Wind  
Wind Speed 6 mph (NW)    
Max Wind Speed 15 mph    
Max Gust Speed 18 mph    
Visibility 10 miles    
Events      
T = Trace of Precipitation, MM = Missing Value Source: NWS Daily Summary

Daily Weather History Graph

Daily Weather History Graph

Search for Another Location

Airport or City:

Trip Planner

Search our weather history database for the weather conditions in past years. The results will help you decide how hot, cold, wet, or windy it might be!

Date:

Astronomy

Aug. 04, 2012 Rise Set
Actual Time 5:43 AM PDT 8:29 PM PDT
Civil Twilight 5:08 AM PDT 9:04 PM PDT
Nautical Twilight 4:23 AM PDT 9:49 PM PDT
Astronomical Twilight 3:29 AM PDT 10:41 PM PDT
Moon 9:21 PM PDT (8/4) 8:53 AM PDT (8/4)
Length of Visible Light 15h 56m
Length of Day
14h 45m
Waning Gibbous, 92% of the Moon is Illuminated
Aug 4
Waning Gibbous
Aug 9
Last Quarter
Aug 17
New
Aug 24
First Quarter
Aug 31
Full

Hourly Weather History & Observations

Time (PDT) Temp. Dew Point Humidity Pressure Visibility Wind Dir Wind Speed Gust Speed Precip Events Conditions
1:55 AM 70.0 °F 41.0 °F 35% 29.99 in 10.0 mi NW 9.2 mph - N/A   Clear
2:55 AM 69.1 °F 43.0 °F 39% 30.00 in 10.0 mi WNW 9.2 mph - N/A   Clear
3:55 AM 66.0 °F 44.1 °F 45% 30.00 in 10.0 mi WNW 8.1 mph - N/A   Clear
4:55 AM 64.9 °F 44.1 °F 47% 30.00 in 10.0 mi West 8.1 mph - N/A   Clear
5:55 AM 64.0 °F 44.1 °F 48% 30.00 in 10.0 mi WNW 3.5 mph - N/A   Clear
6:55 AM 64.9 °F 45.0 °F 48% 30.01 in 10.0 mi WNW 9.2 mph - N/A   Clear
7:55 AM 69.1 °F 46.0 °F 44% 30.02 in 10.0 mi West 6.9 mph - N/A   Clear
8:55 AM 71.1 °F 46.0 °F 41% 30.02 in 10.0 mi West 6.9 mph - N/A   Clear
9:55 AM 75.9 °F 46.0 °F 35% 30.01 in 10.0 mi Calm Calm - N/A   Clear
10:55 AM 81.0 °F 46.0 °F 29% 29.99 in 10.0 mi Calm Calm - N/A   Clear
11:55 AM 84.0 °F 45.0 °F 25% 29.97 in 10.0 mi Variable 4.6 mph - N/A   Clear
12:55 PM 88.0 °F 44.1 °F 22% 29.96 in 10.0 mi Calm Calm - N/A   Clear
1:55 PM 91.0 °F 43.0 °F 19% 29.94 in 10.0 mi Variable 3.5 mph - N/A   Clear
2:55 PM 91.9 °F 43.0 °F 18% 29.93 in 10.0 mi ESE 9.2 mph - N/A   Clear
3:55 PM 93.0 °F 42.1 °F 17% 29.91 in 10.0 mi SE 10.4 mph - N/A   Clear
4:55 PM 93.0 °F 45.0 °F 19% 29.89 in 10.0 mi ESE 8.1 mph - N/A   Clear
5:55 PM 91.9 °F 46.0 °F 21% 29.88 in 10.0 mi ESE 8.1 mph - N/A   Clear
6:55 PM 90.0 °F 50.0 °F 25% 29.87 in 10.0 mi East 5.8 mph - N/A   Clear
7:55 PM 86.0 °F 48.9 °F 28% 29.87 in 10.0 mi East 8.1 mph - N/A   Clear
8:55 PM 81.0 °F 48.0 °F 31% 29.88 in 10.0 mi East 6.9 mph - N/A   Clear
9:55 PM 82.9 °F 46.0 °F 27% 29.88 in 10.0 mi Calm Calm - N/A   Clear
10:55 PM 79.0 °F 45.0 °F 30% 29.88 in 10.0 mi NW 4.6 mph - N/A   Clear
11:55 PM 73.9 °F 46.9 °F 38% 29.88 in 10.0 mi Calm Calm - N/A   Clear